Home > Products > Valid Products > RWR

000
ASUS44 KLZK 290605
RWRLZK

WEATHER ROUNDUP FOR ARKANSAS
NATIONAL WEATHER SERVICE LITTLE ROCK AR
100 AM CDT SUN MAY 29 2016

NOTE: "FAIR" INDICATES FEW OR NO CLOUDS BELOW 12,000 FEET WITH NO
SIGNIFICANT WEATHER AND/OR OBSTRUCTIONS TO VISIBILITY.

ARZ001-003-010-029-290700-
NORTHWEST ARKANSAS

CITY           SKY/WX    TMP DP  RH WIND       PRES   REMARKS
FAYETTEVILLE   PTCLDY    62  62 100 S6        30.09R
6HR MIN TEMP:  62; 6HR MAX TEMP:  77;

FORT SMITH     CLEAR     72  65  78 CALM      30.04S
6HR MIN TEMP:  70; 6HR MAX TEMP:  84;

HARRISON       MOCLDY    67  64  90 CALM      30.08R
6HR MIN TEMP:  67; 6HR MAX TEMP:  79;

BENTONVILLE    CLEAR     64  61  88 CALM      30.09R
6HR MIN TEMP:  64; 6HR MAX TEMP:  79;

ROGERS           N/A     65  62  90 CALM      30.09R
6HR MIN TEMP:  65; 6HR MAX TEMP:  78;

SILOAM SPGS    PTCLDY    63  55  77 CALM      30.08R
6HR MIN TEMP:  63; 6HR MAX TEMP:  79;

HIGHFILL       PTCLDY    64  63  96 CALM      30.07R
6HR MIN TEMP:  63; 6HR MAX TEMP:  77;

$$

ARZ004-005-016-290700-
NORTH CENTRAL ARKANSAS

CITY           SKY/WX    TMP DP  RH WIND       PRES   REMARKS
BATESVILLE     CLEAR     68  64  88 CALM      30.05S
6HR MIN TEMP:  68; 6HR MAX TEMP:  81;

FLIPPIN        CLEAR    N/A N/A N/A SW6       30.03R
MTN HOME       CLEAR     69  65  86 CALM      30.05R
6HR MIN TEMP:  69; 6HR MAX TEMP:  79;

$$

ARZ040-041-290700-
WEST CENTRAL ARKANSAS

CITY           SKY/WX    TMP DP  RH WIND       PRES   REMARKS
MENA           MOCLDY    68  66  94 CALM      30.08F
MOUNT IDA      CLEAR     64  62  93 CALM      30.05R FOG
6HR MIN TEMP:  64; 6HR MAX TEMP:  78;

$$

ARZ009-017-025-026-028-290700-
NORTHEAST ARKANSAS

CITY           SKY/WX    TMP DP  RH WIND       PRES   REMARKS
CORNING          N/A     72  72 100 CALM      30.05S
JONESBORO      CLEAR     72  67  84 SW3       30.04R
6HR MIN TEMP:  70; 6HR MAX TEMP:  82;

NEWPORT        CLEAR     71  69  93 CALM      30.05S
6HR MIN TEMP:  71; 6HR MAX TEMP:  83;

WALNUT RIDGE   CLEAR     70  64  83 CALM      30.04S
6HR MIN TEMP:  70; 6HR MAX TEMP:  81;

BLYTHEVILLE    CLEAR     72  67  84 S7        30.03F
6HR MIN TEMP:  72; 6HR MAX TEMP:  82;

$$

ARZ022-023-033-042-044-290700-
CENTRAL ARKANSAS

CITY           SKY/WX    TMP DP  RH WIND       PRES   REMARKS
LITTLE ROCK    CLEAR     72  67  84 CALM      30.06R
6HR MIN TEMP:  69; 6HR MAX TEMP:  82;

N LITTLE ROCK    N/A     69  67  91 CALM      30.03S
6HR MIN TEMP:  69; 6HR MAX TEMP:  81;

JACKSONVILLE   PTCLDY    67  66  99 W2        30.05R
6HR MIN TEMP:  66; 6HR MAX TEMP:  83;

SEARCY         CLEAR     66  66 100 CALM      30.06S VSB 1/2
6HR MIN TEMP:  66; 6HR MAX TEMP:  81;

HOT SPRINGS    CLEAR     67  65  93 NW3       30.07R
6HR MIN TEMP:  67; 6HR MAX TEMP:  80;

RUSSELLVILLE   PTCLDY    68  66  93 CALM      30.05R
6HR MIN TEMP:  67; 6HR MAX TEMP:  81;

CLINTON        FAIR      64  64 100 CALM      30.07S FOG
$$

ARZ036-290700-
EAST ARKANSAS

CITY           SKY/WX    TMP DP  RH WIND       PRES   REMARKS
WEST MEMPHIS   CLEAR     71  69  93 S3        30.03S
6HR MIN TEMP:  71; 6HR MAX TEMP:  81;

$$

ARZ050-053-066-070-073-290700-
SOUTHWEST ARKANSAS

CITY           SKY/WX    TMP DP  RH WIND       PRES   REMARKS
ARKADELPHIA    FOG       64  64 100 CALM      30.06S VSB 3/4
6HR MIN TEMP:  66; 6HR MAX TEMP:  82;

CAMDEN         FOG       66  64  94 CALM      30.05S VSB 3/4
TEXARKANA      CLOUDY    67  66  97 CALM      30.04F FOG
6HR MIN TEMP:  67; 6HR MAX TEMP:  80;

EL DORADO      FOG       67  67 100 CALM      30.05S VSB 1/4
6HR MIN TEMP:  66; 6HR MAX TEMP:  83;

DE QUEEN       PTCLDY    68  67  96 CALM      30.03F FOG
6HR MIN TEMP:  67; 6HR MAX TEMP:  80;

$$

ARZ056-057-069-290700-
SOUTHEAST ARKANSAS

CITY           SKY/WX    TMP DP  RH WIND       PRES   REMARKS
PINE BLUFF     CLEAR     70  67  90 SW3       30.05S
6HR MIN TEMP:  69; 6HR MAX TEMP:  81;

STUTTGART      CLEAR     72  64  78 SW6       30.05S
6HR MIN TEMP:  72; 6HR MAX TEMP:  82;

MONTICELLO     PTCLDY    71  68  90 S3        30.05S
6HR MIN TEMP:  71; 6HR MAX TEMP:  82;


$$








000
ASUS44 KLZK 290505
RWRLZK

WEATHER ROUNDUP FOR ARKANSAS
NATIONAL WEATHER SERVICE LITTLE ROCK AR
1200 AM CDT SUN MAY 29 2016

NOTE: "FAIR" INDICATES FEW OR NO CLOUDS BELOW 12,000 FEET WITH NO
SIGNIFICANT WEATHER AND/OR OBSTRUCTIONS TO VISIBILITY.

ARZ001-003-010-029-290600-
NORTHWEST ARKANSAS

CITY           SKY/WX    TMP DP  RH WIND       PRES   REMARKS
FAYETTEVILLE   CLEAR     63  63 100 S3        30.06R
FORT SMITH     CLEAR     72  65  78 CALM      30.04R
HARRISON       MOCLDY    69  65  86 S5        30.07R
BENTONVILLE    CLEAR     64  61  88 CALM      30.06S
ROGERS           N/A     67  63  87 CALM      30.07R
SILOAM SPGS    CLEAR     64  57  77 CALM      30.07R
HIGHFILL       CLEAR     64  63  96 CALM      30.05S
$$

ARZ004-005-016-290600-
NORTH CENTRAL ARKANSAS

CITY           SKY/WX    TMP DP  RH WIND       PRES   REMARKS
BATESVILLE     CLEAR     72  64  78 CALM      30.05S
FLIPPIN        CLEAR    N/A N/A N/A SW5       30.02R
MTN HOME       CLEAR     70  65  84 SW5       30.04R
$$

ARZ040-041-290600-
WEST CENTRAL ARKANSAS

CITY           SKY/WX    TMP DP  RH WIND       PRES   REMARKS
MENA           PTCLDY    68  68 100 CALM      30.09R
MOUNT IDA      CLEAR     65  63  93 CALM      30.04R FOG
$$

ARZ009-017-025-026-028-290600-
NORTHEAST ARKANSAS

CITY           SKY/WX    TMP DP  RH WIND       PRES   REMARKS
CORNING          N/A     72  72 100 W5        30.04R
JONESBORO      CLEAR     72  68  87 W3        30.03R
NEWPORT        CLEAR     72  70  93 SW5       30.05R
WALNUT RIDGE   CLEAR     72  66  83 W5        30.04R
BLYTHEVILLE    CLEAR     73  68  84 SE5       30.04S
$$

ARZ022-023-033-042-044-290600-
CENTRAL ARKANSAS

CITY           SKY/WX    TMP DP  RH WIND       PRES   REMARKS
LITTLE ROCK    CLEAR     70  66  87 S3        30.04S
N LITTLE ROCK    N/A     70  66  88 CALM      30.03R
JACKSONVILLE   PTCLDY    67  67  99 NE1       30.03S
SEARCY         PTCLDY    68  68 100 CALM      30.06R
HOT SPRINGS    CLEAR     67  65  93 CALM      30.06R
RUSSELLVILLE   PTCLDY    68  67  96 SE3       30.04R
CLINTON        FAIR      66  66 100 CALM      30.06S
$$

ARZ036-290600-
EAST ARKANSAS

CITY           SKY/WX    TMP DP  RH WIND       PRES   REMARKS
WEST MEMPHIS   CLEAR     71  69  93 S3        30.03S
$$

ARZ050-053-066-070-073-290600-
SOUTHWEST ARKANSAS

CITY           SKY/WX    TMP DP  RH WIND       PRES   REMARKS
ARKADELPHIA    FAIR      67  67 100 CALM      30.05S FOG
CAMDEN         FOG       66  64  94 CALM      30.05R VSB 1/2
TEXARKANA      CLEAR     70  68  93 CALM      30.05R
EL DORADO      CLEAR     69  68  96 CALM      30.05R
DE QUEEN       CLOUDY    69  68  96 CALM      30.05R FOG
$$

ARZ056-057-069-290600-
SOUTHEAST ARKANSAS

CITY           SKY/WX    TMP DP  RH WIND       PRES   REMARKS
PINE BLUFF     CLEAR     71  68  90 CALM      30.05R
STUTTGART      CLEAR     73  66  78 S6        30.05R
MONTICELLO     PTCLDY    72  69  90 CALM      30.05S

$$








000
ASUS44 KLZK 290205
RWRLZK

WEATHER ROUNDUP FOR ARKANSAS
NATIONAL WEATHER SERVICE LITTLE ROCK AR
900 PM CDT SAT MAY 28 2016

NOTE: "FAIR" INDICATES FEW OR NO CLOUDS BELOW 12,000 FEET WITH NO
SIGNIFICANT WEATHER AND/OR OBSTRUCTIONS TO VISIBILITY.

ARZ001-003-010-029-290300-
NORTHWEST ARKANSAS

CITY           SKY/WX    TMP DP  RH WIND       PRES   REMARKS
FAYETTEVILLE   CLEAR     69  66  90 S3        30.01R
FORT SMITH     CLEAR     75  64  68 E5        29.97R
HARRISON       CLEAR     72  65  78 S7        30.02R
BENTONVILLE    CLEAR     70  63  78 W3        30.02S
ROGERS           N/A     72  64  76 CALM      30.02R
SILOAM SPGS    CLEAR     72  59  64 CALM      30.02R
HIGHFILL       CLEAR     72  67  84 W3        30.01R
SPRINGDALE     CLEAR     75  66  73 SW5       30.03R
$$

ARZ004-005-016-290300-
NORTH CENTRAL ARKANSAS

CITY           SKY/WX    TMP DP  RH WIND       PRES   REMARKS
BATESVILLE     CLEAR     73  66  78 SE6       30.00S
FLIPPIN        CLEAR    N/A N/A N/A S5        29.98R
MTN HOME       CLEAR     73  67  81 S5        29.99R
$$

ARZ040-041-290300-
WEST CENTRAL ARKANSAS

CITY           SKY/WX    TMP DP  RH WIND       PRES   REMARKS
MENA           CLEAR     73  70  88 CALM      30.03S
MOUNT IDA      CLEAR     70  66  87 CALM      30.00S
$$

ARZ009-017-025-026-028-290300-
NORTHEAST ARKANSAS

CITY           SKY/WX    TMP DP  RH WIND       PRES   REMARKS
CORNING          N/A     75  72  88 S6        30.00S
JONESBORO      CLEAR     76  69  79 S6        30.01R
NEWPORT        CLEAR     76  71  84 S7        30.02R
WALNUT RIDGE   CLEAR     75  66  73 S9        30.00S
BLYTHEVILLE    CLOUDY    77  71  82 S6        30.02S
$$

ARZ022-023-033-042-044-290300-
CENTRAL ARKANSAS

CITY           SKY/WX    TMP DP  RH WIND       PRES   REMARKS
LITTLE ROCK    CLEAR     75  67  76 S5        30.00S
N LITTLE ROCK    N/A     75  67  74 S5        29.99R
SEARCY         CLEAR     73  69  87 S3        30.02R
HOT SPRINGS    CLEAR     73  66  78 CALM      30.02R
RUSSELLVILLE   CLEAR     74  67  78 CALM      29.99R
CLINTON        FAIR      72  70  94 CALM      30.01R
$$

ARZ036-290300-
EAST ARKANSAS

CITY           SKY/WX    TMP DP  RH WIND       PRES   REMARKS
WEST MEMPHIS   CLEAR     75  70  84 CALM      30.01S
$$

ARZ050-053-066-070-073-290300-
SOUTHWEST ARKANSAS

CITY           SKY/WX    TMP DP  RH WIND       PRES   REMARKS
ARKADELPHIA    FAIR      71  71 100 CALM      30.01R
CAMDEN         CLEAR     72  68  88 SE5       30.00S
TEXARKANA      PTCLDY    73  70  90 CALM      30.01R
EL DORADO      CLEAR     74  72  93 E5        30.01S
DE QUEEN       PTCLDY    71  68  90 SE5       29.99R
$$

ARZ056-057-069-290300-
SOUTHEAST ARKANSAS

CITY           SKY/WX    TMP DP  RH WIND       PRES   REMARKS
PINE BLUFF     CLEAR     74  69  85 S7        30.01S
STUTTGART      CLEAR     77  66  69 SE5       30.01S
MONTICELLO     CLEAR     74  71  91 CALM      30.03R

$$








000
ASUS44 KLZK 282305
RWRLZK

WEATHER ROUNDUP FOR ARKANSAS
NATIONAL WEATHER SERVICE LITTLE ROCK AR
600 PM CDT SAT MAY 28 2016

NOTE: "FAIR" INDICATES FEW OR NO CLOUDS BELOW 12,000 FEET WITH NO
SIGNIFICANT WEATHER AND/OR OBSTRUCTIONS TO VISIBILITY.

ARZ001-003-010-029-290000-
NORTHWEST ARKANSAS

CITY           SKY/WX    TMP DP  RH WIND       PRES   REMARKS
FAYETTEVILLE   MOSUNNY   78  66  66 W6        29.98S
FORT SMITH     SUNNY     86  61  42 SW12      29.94R HX  86
HARRISON       SUNNY     81  63  54 S10G17    29.97S
BENTONVILLE    MOSUNNY   79  63  57 SW8       29.99F
ROGERS           N/A     77  65  66 SW9       29.99S
SILOAM SPGS    SUNNY     79  63  57 SW12      29.99F
HIGHFILL       SUNNY     78  67  68 SW7       29.98S
SPRINGDALE     MOSUNNY   79  64  61 W12       30.00S
$$

ARZ004-005-016-290000-
NORTH CENTRAL ARKANSAS

CITY           SKY/WX    TMP DP  RH WIND       PRES   REMARKS
BATESVILLE     SUNNY     82  66  57 SW9       29.99S HX  85
FLIPPIN        SUNNY    N/A N/A N/A S7        29.93S
MTN HOME       SUNNY     81  67  62 S9        29.94F
$$

ARZ040-041-290000-
WEST CENTRAL ARKANSAS

CITY           SKY/WX    TMP DP  RH WIND       PRES   REMARKS
MENA           SUNNY     82  70  65 SW3       29.99R HX  86
MOUNT IDA      SUNNY     79  66  64 VRB7      29.97F
$$

ARZ009-017-025-026-028-290000-
NORTHEAST ARKANSAS

CITY           SKY/WX    TMP DP  RH WIND       PRES   REMARKS
CORNING        LGT RAIN  82  68  61 SW14G20   29.99F HX  85
JONESBORO      CLOUDY    82  70  66 SW10      29.99S HX  86
NEWPORT        CLOUDY    85  68  56 S10       30.00S HX  88
WALNUT RIDGE   CLOUDY    82  66  57 S15       29.98F HX  85
BLYTHEVILLE    MOSUNNY   83  69  62 SW10      30.01R HX  86
$$

ARZ022-023-033-042-044-290000-
CENTRAL ARKANSAS

CITY           SKY/WX    TMP DP  RH WIND       PRES   REMARKS
LITTLE ROCK    MOSUNNY   83  66  56 SW6       29.99S HX  85
N LITTLE ROCK    N/A     83  67  59 W5        29.97F HX  85
JACKSONVILLE   SUNNY     84  67  56 S6        29.98S HX  87
SEARCY         SUNNY     82  70  65 S9        30.00F HX  86
HOT SPRINGS    SUNNY     80  66  62 SE7       29.99F
RUSSELLVILLE   SUNNY     82  67  60 S8        29.96S
CLINTON        FAIR      82  68  61 SE5       29.98F HX  85
$$

ARZ036-290000-
EAST ARKANSAS

CITY           SKY/WX    TMP DP  RH WIND       PRES   REMARKS
WEST MEMPHIS   MOSUNNY   82  70  66 S9        30.00R HX  86
$$

ARZ050-053-066-070-073-290000-
SOUTHWEST ARKANSAS

CITY           SKY/WX    TMP DP  RH WIND       PRES   REMARKS
ARKADELPHIA    FAIR      83  68  60 S3        29.99F HX  86
CAMDEN         SUNNY     84  66  54 SE7       29.98F HX  86
TEXARKANA      SUNNY     81  67  62 SE6       29.98F
EL DORADO      SUNNY     84  68  58 CALM      29.99F HX  87
DE QUEEN       SUNNY     80  69  69 VRB6      29.96S
$$

ARZ056-057-069-290000-
SOUTHEAST ARKANSAS

CITY           SKY/WX    TMP DP  RH WIND       PRES   REMARKS
PINE BLUFF     MOSUNNY   82  65  56 SW6       29.99F
STUTTGART      MOSUNNY   84  63  48 SW7       30.00S HX  85
MONTICELLO     CLOUDY    83  68  60 S8        30.00F HX  86

$$








000
ASUS44 KLZK 281705
RWRLZK

WEATHER ROUNDUP FOR ARKANSAS
NATIONAL WEATHER SERVICE LITTLE ROCK AR
1200 PM CDT SAT MAY 28 2016

NOTE: "FAIR" INDICATES FEW OR NO CLOUDS BELOW 12,000 FEET WITH NO
SIGNIFICANT WEATHER AND/OR OBSTRUCTIONS TO VISIBILITY.

ARZ001-003-010-029-281800-
NORTHWEST ARKANSAS

CITY           SKY/WX    TMP DP  RH WIND       PRES   REMARKS
FAYETTEVILLE   PTSUNNY   73  66  78 S12       29.99R
FORT SMITH     CLOUDY    76  63  64 W6        29.99R
HARRISON       SUNNY     79  64  60 CALM      29.98R
BENTONVILLE    CLOUDY    72  61  68 SW8       29.99S
ROGERS         CLOUDY    74  65  73 SW10      30.00R
SILOAM SPGS    CLOUDY    70  57  64 SW13      30.00R
HIGHFILL       CLOUDY    71  65  81 SW10      29.99R
SPRINGDALE     PTSUNNY   73  64  73 S12       30.01R
$$

ARZ004-005-016-281800-
NORTH CENTRAL ARKANSAS

CITY           SKY/WX    TMP DP  RH WIND       PRES   REMARKS
BATESVILLE     MOSUNNY   79  64  61 S8        29.99R
FLIPPIN        SUNNY    N/A N/A N/A S5        29.93S
MTN HOME       SUNNY     78  64  61 S7        29.96R
$$

ARZ040-041-281800-
WEST CENTRAL ARKANSAS

CITY           SKY/WX    TMP DP  RH WIND       PRES   REMARKS
MENA           CLOUDY    73  68  83 SW5       30.02R
MOUNT IDA      CLOUDY    72  63  73 W5        29.99R
$$

ARZ009-017-025-026-028-281800-
NORTHEAST ARKANSAS

CITY           SKY/WX    TMP DP  RH WIND       PRES   REMARKS
CORNING          N/A     81  70  69 S9        30.00S
JONESBORO      MOSUNNY   80  68  66 S12       29.99S
NEWPORT        MOSUNNY   81  68  64 S13       30.00S
WALNUT RIDGE   MOSUNNY   79  66  65 S15       29.99S
BLYTHEVILLE    CLOUDY    80  67  64 S12       30.01S
$$

ARZ022-023-033-042-044-281800-
CENTRAL ARKANSAS

CITY           SKY/WX    TMP DP  RH WIND       PRES   REMARKS
LITTLE ROCK    CLOUDY    80  65  59 VRB7      29.99S
N LITTLE ROCK    N/A     78  65  65 SW6       29.98R
JACKSONVILLE   CLOUDY    78  65  64 S9        29.99R
SEARCY         PTSUNNY   78  67  68 S9        30.00S
HOT SPRINGS    CLOUDY    75  64  68 VRB7      30.01R
RUSSELLVILLE   PTSUNNY   76  65  68 VRB3      29.98R
CLINTON        PTSUNNY   79  68  69 S3        29.99R
$$

ARZ036-281800-
EAST ARKANSAS

CITY           SKY/WX    TMP DP  RH WIND       PRES   REMARKS
WEST MEMPHIS   MOSUNNY   81  70  69 S13       30.01R
$$

ARZ050-053-066-070-073-281800-
SOUTHWEST ARKANSAS

CITY           SKY/WX    TMP DP  RH WIND       PRES   REMARKS
ARKADELPHIA    PTSUNNY   76  67  73 W3        30.01R
CAMDEN         CLOUDY    79  63  57 CALM      30.00S
TEXARKANA      CLOUDY    70  64  81 W6        30.02R
EL DORADO      MOSUNNY   77  66  68 CALM      30.00R
DE QUEEN       CLOUDY    68  66  93 SW3       30.00S FOG
$$

ARZ056-057-069-281800-
SOUTHEAST ARKANSAS

CITY           SKY/WX    TMP DP  RH WIND       PRES   REMARKS
PINE BLUFF     PTSUNNY   78  65  63 S9        30.00R
STUTTGART      CLOUDY    81  64  57 S13       30.01R
MONTICELLO     CLOUDY    80  67  64 S7        30.01R

$$








000
ASUS44 KLZK 281505
RWRLZK

WEATHER ROUNDUP FOR ARKANSAS
NATIONAL WEATHER SERVICE LITTLE ROCK AR
1000 AM CDT SAT MAY 28 2016

NOTE: "FAIR" INDICATES FEW OR NO CLOUDS BELOW 12,000 FEET WITH NO
SIGNIFICANT WEATHER AND/OR OBSTRUCTIONS TO VISIBILITY.

ARZ001-003-010-029-281600-
NORTHWEST ARKANSAS

CITY           SKY/WX    TMP DP  RH WIND       PRES   REMARKS
FAYETTEVILLE   CLOUDY    68  63  84 SW12      29.96R
FORT SMITH     PTSUNNY   73  62  68 SW8       29.95R
HARRISON       CLOUDY    73  63  70 S6        29.95R
BENTONVILLE    CLOUDY    68  61  77 SW10      29.96R
ROGERS           N/A     68  63  83 SW15      29.97R
SILOAM SPGS    CLOUDY    68  57  68 SW16      29.97R
HIGHFILL       CLOUDY    67  63  87 SW14      29.95R
SPRINGDALE     CLOUDY    68  63  83 SW12G17   29.98R
$$

ARZ004-005-016-281600-
NORTH CENTRAL ARKANSAS

CITY           SKY/WX    TMP DP  RH WIND       PRES   REMARKS
BATESVILLE     MOSUNNY   75  64  69 S8        29.97S
FLIPPIN        SUNNY    N/A N/A N/A SE3       29.90S
MTN HOME       SUNNY     73  63  70 S8        29.93R
$$

ARZ040-041-281600-
WEST CENTRAL ARKANSAS

CITY           SKY/WX    TMP DP  RH WIND       PRES   REMARKS
MENA           CLOUDY    70  64  83 SW7       29.99R
MOUNT IDA      CLOUDY    70  62  76 MISG      29.95R
$$

ARZ009-017-025-026-028-281600-
NORTHEAST ARKANSAS

CITY           SKY/WX    TMP DP  RH WIND       PRES   REMARKS
CORNING          N/A     77  70  78 S13       29.98R
JONESBORO      MOSUNNY   75  68  78 S9        29.97S
NEWPORT        MOSUNNY   77  68  73 S12       29.98R
WALNUT RIDGE   MOSUNNY   73  64  73 S12       29.97S
BLYTHEVILLE    PTSUNNY   76  67  73 S10       30.00R
$$

ARZ022-023-033-042-044-281600-
CENTRAL ARKANSAS

CITY           SKY/WX    TMP DP  RH WIND       PRES   REMARKS
LITTLE ROCK    PTSUNNY   75  65  70 SE5       29.97R
N LITTLE ROCK    N/A     74  65  74 S5        29.95R
JACKSONVILLE   MOSUNNY   74  67  76 VRB1      29.96R
SEARCY         CLOUDY    74  68  81 S8        29.98S
HOT SPRINGS    CLOUDY    73  63  70 SW8       29.97R
RUSSELLVILLE   CLOUDY    74  64  71 VRB7      29.95R
CLINTON        FAIR      75  64  69 CALM      29.96S
$$

ARZ036-281600-
EAST ARKANSAS

CITY           SKY/WX    TMP DP  RH WIND       PRES   REMARKS
WEST MEMPHIS   MOSUNNY   77  69  76 S15       29.99R
$$

ARZ050-053-066-070-073-281600-
SOUTHWEST ARKANSAS

CITY           SKY/WX    TMP DP  RH WIND       PRES   REMARKS
ARKADELPHIA    CLOUDY    75  66  73 SW8       29.98R
CAMDEN         MOSUNNY   73  64  73 SE3       29.97S
TEXARKANA      CLOUDY    67  64  90 SW7       29.98R
EL DORADO      CLOUDY    71  66  84 SE5       29.98R
DE QUEEN       CLOUDY    67  65  93 S5        29.96R
$$

ARZ056-057-069-281600-
SOUTHEAST ARKANSAS

CITY           SKY/WX    TMP DP  RH WIND       PRES   REMARKS
PINE BLUFF     CLOUDY    76  66  71 S5        29.97R
STUTTGART      MOSUNNY   73  64  73 SE9       29.97F
MONTICELLO     MOSUNNY   74  67  78 S6        29.98R

$$








000
ASUS44 KLZK 281305
RWRLZK

WEATHER ROUNDUP FOR ARKANSAS
NATIONAL WEATHER SERVICE LITTLE ROCK AR
800 AM CDT SAT MAY 28 2016

NOTE: "FAIR" INDICATES FEW OR NO CLOUDS BELOW 12,000 FEET WITH NO
SIGNIFICANT WEATHER AND/OR OBSTRUCTIONS TO VISIBILITY.

ARZ001-003-010-029-281400-
NORTHWEST ARKANSAS

CITY           SKY/WX    TMP DP  RH WIND       PRES   REMARKS
FAYETTEVILLE   SUNNY     66  62  87 S9        29.91R
FORT SMITH     SUNNY     67  63  87 CALM      29.91R
HARRISON       CLOUDY    64  61  90 SE6       29.91R
BENTONVILLE    SUNNY     64  59  82 SW8       29.92R
ROGERS         SUNNY     66  62  87 SW8       29.92R
SILOAM SPGS    CLOUDY    63  55  77 SW10      29.93R
HIGHFILL       PTSUNNY   64  62  93 SW12      29.91R
SPRINGDALE     SUNNY     64  63  94 S8        29.92R
$$

ARZ004-005-016-281400-
NORTH CENTRAL ARKANSAS

CITY           SKY/WX    TMP DP  RH WIND       PRES   REMARKS
BATESVILLE     PTSUNNY   70  64  83 S10       29.94R
FLIPPIN        CLOUDY   N/A N/A N/A SE5       29.88R
MTN HOME       CLOUDY    68  63  84 VRB5      29.90R
$$

ARZ040-041-281400-
WEST CENTRAL ARKANSAS

CITY           SKY/WX    TMP DP  RH WIND       PRES   REMARKS
MENA           CLOUDY    68  64  88 S3        29.93S
MOUNT IDA      CLOUDY    68  63  84 CALM      29.90R
$$

ARZ009-017-025-026-028-281400-
NORTHEAST ARKANSAS

CITY           SKY/WX    TMP DP  RH WIND       PRES   REMARKS
CORNING          N/A     70  70 100 S7        29.96R
JONESBORO      CLOUDY    70  66  87 S9        29.95R
NEWPORT        MOSUNNY   71  69  93 S10       29.96R
WALNUT RIDGE   CLOUDY    70  64  83 S9        29.95R
BLYTHEVILLE    MOSUNNY   72  68  87 S9        29.97R
$$

ARZ022-023-033-042-044-281400-
CENTRAL ARKANSAS

CITY           SKY/WX    TMP DP  RH WIND       PRES   REMARKS
LITTLE ROCK    PTSUNNY   68  64  87 SE5       29.93R
N LITTLE ROCK    N/A     66  63  90 S3        29.91R
JACKSONVILLE   MOSUNNY   68  66  93 SE2       29.93R
SEARCY         CLOUDY    69  67  93 S6        29.96R
HOT SPRINGS    CLOUDY    70  64  81 W3        29.93R
RUSSELLVILLE   CLOUDY    69  64  84 E3        29.92R
CLINTON        FAIR      66  66 100 CALM      29.94R
$$

ARZ036-281400-
EAST ARKANSAS

CITY           SKY/WX    TMP DP  RH WIND       PRES   REMARKS
WEST MEMPHIS   CLOUDY    72  68  87 S10       29.96R
$$

ARZ050-053-066-070-073-281400-
SOUTHWEST ARKANSAS

CITY           SKY/WX    TMP DP  RH WIND       PRES   REMARKS
ARKADELPHIA    FAIR      68  67  96 CALM      29.93R
CAMDEN         SUNNY     66  63  88 SE3       29.92R
TEXARKANA      CLOUDY    65  63  93 CALM      29.93R
EL DORADO      MOSUNNY   65  64  97 CALM      29.93R
DE QUEEN       CLOUDY    66  65  96 CALM      29.91R
$$

ARZ056-057-069-281400-
SOUTHEAST ARKANSAS

CITY           SKY/WX    TMP DP  RH WIND       PRES   REMARKS
PINE BLUFF     PTSUNNY   69  65  86 SE9       29.94R
STUTTGART      MOSUNNY   70  63  78 SE13      29.94S
MONTICELLO     CLOUDY    68  66  93 E8        29.94S

$$








000
ASUS44 KLZK 281205
RWRLZK

WEATHER ROUNDUP FOR ARKANSAS
NATIONAL WEATHER SERVICE LITTLE ROCK AR
700 AM CDT SAT MAY 28 2016

NOTE: "FAIR" INDICATES FEW OR NO CLOUDS BELOW 12,000 FEET WITH NO
SIGNIFICANT WEATHER AND/OR OBSTRUCTIONS TO VISIBILITY.

ARZ001-003-010-029-281300-
NORTHWEST ARKANSAS

CITY           SKY/WX    TMP DP  RH WIND       PRES   REMARKS
FAYETTEVILLE   CLEAR     63  61  93 SW8       29.89R
6HR MIN TEMP:  57; 6HR MAX TEMP:  65;

FORT SMITH     CLEAR     63  60  90 CALM      29.89R
6HR MIN TEMP:  62; 6HR MAX TEMP:  66;

HARRISON       CLOUDY    62  60  93 SE7       29.90R
6HR MIN TEMP:  60; 6HR MAX TEMP:  65;

BENTONVILLE    CLEAR     61  57  88 SW6       29.89R
6HR MIN TEMP:  59; 6HR MAX TEMP:  64;

ROGERS           N/A     60  59  96 S6        29.90R
6HR MIN TEMP:  59; 6HR MAX TEMP:  65;

SILOAM SPGS    PTCLDY    61  52  72 SW6       29.91R
6HR MIN TEMP:  57; 6HR MAX TEMP:  64;

HIGHFILL       CLEAR     61  61 100 SW7       29.89R
6HR MIN TEMP:  59; 6HR MAX TEMP:  65;

SPRINGDALE     CLEAR     59  59 100 CALM      29.91R
$$

ARZ004-005-016-281300-
NORTH CENTRAL ARKANSAS

CITY           SKY/WX    TMP DP  RH WIND       PRES   REMARKS
BATESVILLE     MOSUNNY   66  63  88 SE8       29.94R
6HR MIN TEMP:  66; 6HR MAX TEMP:  70;

FLIPPIN        MOSUNNY  N/A N/A N/A SE3       29.87R
MTN HOME       CLOUDY    64  62  93 SE5       29.89R
6HR MIN TEMP:  61; 6HR MAX TEMP:  68;

$$

ARZ040-041-281300-
WEST CENTRAL ARKANSAS

CITY           SKY/WX    TMP DP  RH WIND       PRES   REMARKS
MENA           CLOUDY    68  64  88 SW3       29.93R
MOUNT IDA      CLOUDY    64  61  90 W3        29.89R
6HR MIN TEMP:  62; 6HR MAX TEMP:  65;

$$

ARZ009-017-025-026-028-281300-
NORTHEAST ARKANSAS

CITY           SKY/WX    TMP DP  RH WIND       PRES   REMARKS
CORNING          N/A     68  68 100 SE10      29.94R
JONESBORO      CLOUDY    69  66  90 S7        29.94R
6HR MIN TEMP:  67; 6HR MAX TEMP:  69;

NEWPORT        CLOUDY    68  68 100 S5        29.95R
6HR MIN TEMP:  67; 6HR MAX TEMP:  69;

WALNUT RIDGE   CLOUDY    68  63  83 S9        29.94R
6HR MIN TEMP:  68; 6HR MAX TEMP:  70;

BLYTHEVILLE    PTSUNNY   70  67  90 SE6       29.96S
6HR MIN TEMP:  69; 6HR MAX TEMP:  70; 6HR PCP:  0.04;

$$

ARZ022-023-033-042-044-281300-
CENTRAL ARKANSAS

CITY           SKY/WX    TMP DP  RH WIND       PRES   REMARKS
LITTLE ROCK    PTSUNNY   66  62  87 S6        29.92S
6HR MIN TEMP:  65; 6HR MAX TEMP:  69;

N LITTLE ROCK    N/A     65  62  92 S5        29.90S
6HR MIN TEMP:  64; 6HR MAX TEMP:  69;

JACKSONVILLE   PTSUNNY   66  65  99 VRB2      29.91R
6HR MIN TEMP:  64; 6HR MAX TEMP:  69;

SEARCY         PTSUNNY   67  66  97 S3        29.95R
6HR MIN TEMP:  64; 6HR MAX TEMP:  69;

HOT SPRINGS    CLOUDY    65  63  93 CALM      29.92R
6HR MIN TEMP:  63; 6HR MAX TEMP:  67;

RUSSELLVILLE   CLOUDY    66  63  90 CALM      29.91R
6HR MIN TEMP:  63; 6HR MAX TEMP:  69;

CLINTON        FAIR      63  63 100 CALM      29.93R
$$

ARZ036-281300-
EAST ARKANSAS

CITY           SKY/WX    TMP DP  RH WIND       PRES   REMARKS
WEST MEMPHIS   CLOUDY    69  67  93 S7        29.95R
6HR MIN TEMP:  66; 6HR MAX TEMP:  69; 6HR PCP:  0.02;

$$

ARZ050-053-066-070-073-281300-
SOUTHWEST ARKANSAS

CITY           SKY/WX    TMP DP  RH WIND       PRES   REMARKS
ARKADELPHIA    FAIR      64  64 100 CALM      29.91S
6HR MIN TEMP:  61; 6HR MAX TEMP:  65;

CAMDEN         MOSUNNY   63  59  88 CALM      29.91F
TEXARKANA      CLOUDY    63  62  97 CALM      29.90R
6HR MIN TEMP:  63; 6HR MAX TEMP:  65;

EL DORADO      PTCLDY    62  61  96 CALM      29.92R
6HR MIN TEMP:  60; 6HR MAX TEMP:  64;

DE QUEEN       CLOUDY    64  64 100 CALM      29.90R
6HR MIN TEMP:  61; 6HR MAX TEMP:  66;

$$

ARZ056-057-069-281300-
SOUTHEAST ARKANSAS

CITY           SKY/WX    TMP DP  RH WIND       PRES   REMARKS
PINE BLUFF     PTSUNNY   66  64  93 SE3       29.93R
6HR MIN TEMP:  64; 6HR MAX TEMP:  69; 6HR PCP: TRACE;

STUTTGART      MOSUNNY   68  63  83 SE8       29.94S
6HR MIN TEMP:  66; 6HR MAX TEMP:  72;

MONTICELLO     CLOUDY    66  64  93 E3        29.94R
6HR MIN TEMP:  66; 6HR MAX TEMP:  69;


$$








000
ASUS44 KLZK 281105
RWRLZK

WEATHER ROUNDUP FOR ARKANSAS
NATIONAL WEATHER SERVICE LITTLE ROCK AR
600 AM CDT SAT MAY 28 2016

NOTE: "FAIR" INDICATES FEW OR NO CLOUDS BELOW 12,000 FEET WITH NO
SIGNIFICANT WEATHER AND/OR OBSTRUCTIONS TO VISIBILITY.

ARZ001-003-010-029-281200-
NORTHWEST ARKANSAS

CITY           SKY/WX    TMP DP  RH WIND       PRES   REMARKS
FAYETTEVILLE   CLEAR     58  58 100 SW5       29.87R
FORT SMITH     CLEAR     62  59  90 CALM      29.87R
HARRISON       PTCLDY    61  59  93 SE7       29.88R
BENTONVILLE    CLEAR     59  55  88 CALM      29.88R
ROGERS           N/A     60  59  96 S3        29.88R
SILOAM SPGS    CLEAR     59  52  77 SW5       29.88R
HIGHFILL       CLEAR     61  60  97 S6        29.87R
SPRINGDALE     CLEAR     59  59 100 CALM      29.89
$$

ARZ004-005-016-281200-
NORTH CENTRAL ARKANSAS

CITY           SKY/WX    TMP DP  RH WIND       PRES   REMARKS
BATESVILLE     CLEAR     66  63  88 S6        29.92S
FLIPPIN        CLOUDY   N/A N/A N/A CALM      29.85R
MTN HOME       CLOUDY    63  62  97 SE3       29.88R
$$

ARZ040-041-281200-
WEST CENTRAL ARKANSAS

CITY           SKY/WX    TMP DP  RH WIND       PRES   REMARKS
MENA           CLOUDY    68  64  88 SW5       29.91S
MOUNT IDA      CLOUDY    62  60  93 CALM      29.88R
$$

ARZ009-017-025-026-028-281200-
NORTHEAST ARKANSAS

CITY           SKY/WX    TMP DP  RH WIND       PRES   REMARKS
CORNING          N/A     68  68 100 S5        29.93R
JONESBORO      CLOUDY    69  66  90 S5        29.92R
NEWPORT        MOCLDY    68  68 100 S6        29.94R
WALNUT RIDGE   CLOUDY    68  63  83 S7        29.92R
BLYTHEVILLE    LGT RAIN  70  66  87 S7        29.96R
$$

ARZ022-023-033-042-044-281200-
CENTRAL ARKANSAS

CITY           SKY/WX    TMP DP  RH WIND       PRES   REMARKS
LITTLE ROCK    MOCLDY    65  62  90 S8        29.92R
N LITTLE ROCK    N/A     64  62  93 S5        29.90R
SEARCY         PTCLDY    64  64 100 SE3       29.94R
HOT SPRINGS    CLOUDY    64  61  90 E3        29.90S
RUSSELLVILLE   PTCLDY    64  63  96 CALM      29.88R
CLINTON        FAIR      63  63 100 CALM      29.91R FOG
$$

ARZ036-281200-
EAST ARKANSAS

CITY           SKY/WX    TMP DP  RH WIND       PRES   REMARKS
WEST MEMPHIS   MOCLDY    68  67  96 S5        29.94R
$$

ARZ050-053-066-070-073-281200-
SOUTHWEST ARKANSAS

CITY           SKY/WX    TMP DP  RH WIND       PRES   REMARKS
ARKADELPHIA    FAIR      62  62 100 CALM      29.91S FOG
CAMDEN         CLOUDY    61  59  94 CALM      29.92R FOG
TEXARKANA      CLOUDY    63  62  97 SE6       29.89S
EL DORADO      PTCLDY    60  60 100 CALM      29.91S
DE QUEEN       CLOUDY    63  62  97 CALM      29.88S
$$

ARZ056-057-069-281200-
SOUTHEAST ARKANSAS

CITY           SKY/WX    TMP DP  RH WIND       PRES   REMARKS
PINE BLUFF     PTCLDY    64  62  93 SE5       29.92S
STUTTGART      MOCLDY    68  63  83 S8        29.94R
MONTICELLO     MOCLDY    66  64  93 SE3       29.93R

$$








    US Dept of Commerce
    National Oceanic and Atmospheric Administration
    National Weather Service
    1325 East West Highway
    Silver Spring, MD 20910
    Page Author: NWS Internet Services Team
Disclaimer
Information Quality
Credits
Glossary
Privacy Policy
Freedom of Information Act (FOIA)
About Us
Career Opportunities